CW4517 Weather Reports


Display with metric or nautical units.
time (UTC)temp
F
wind
direction
speed
MPH
gust
MPH
rain 1hr
in
rain 24hr
in
rain mn
in
humidity
%
barometer
mb
20260906035706 73 52 6.0 12.0 0.00 0.00 0.00 87 1012.4
20260906035205 73 52 6.0 12.0 0.00 0.00 0.00 87 1012.4
20260906034705 73 72 6.0 12.0 0.00 0.00 0.00 87 1012.4
20260906034206 73 46 5.0 12.0 0.00 0.00 0.00 87 1012.4
20260906033706 73 83 6.0 17.0 0.00 0.00 0.00 87 1012.4
20260906033208 73 107 6.0 17.0 0.00 0.00 0.00 87 1012.4
20260906032709 73 49 5.0 11.0 0.00 0.00 0.00 86 1012.4
20260906032207 73 60 7.0 13.0 0.00 0.00 0.00 86 1012.4
20260906031929 73 45 8.0 15.0 0.00 0.00 0.00 86 1012.4
20260906031159 73 46 6.0 15.0 0.00 0.00 0.00 87 1012.3
20260906030652 73 14 5.0 14.0 0.00 0.00 0.00 87 1012.3
20260906030643 73 36 6.0 14.0 0.00 0.00 0.00 87 1012.3
20260906025635 73 77 6.0 14.0 0.00 0.00 0.00 87 1012.3
20260906025134 73 85 6.0 14.0 0.00 0.00 0.00 87 1012.3
20260906024628 73 86 5.0 14.0 0.00 0.00 0.00 87 1012.3
20260906024122 73 47 4.0 11.0 0.00 0.00 0.00 86 1012.3
20260906023616 73 35 4.0 12.0 0.00 0.00 0.00 86 1012.3
20260906023111 73 52 5.0 12.0 0.00 0.00 0.00 86 1012.3
20260906022605 73 105 5.0 12.0 0.00 0.00 0.00 86 1012.4
20260906022055 73 355 6.0 12.0 0.00 0.00 0.00 86 1012.4
20260906021554 73 24 6.0 12.0 0.00 0.00 0.00 86 1012.4
20260906021048 73 71 5.0 11.0 0.00 0.00 0.00 86 1012.4
20260906020541 73 46 6.0 11.0 0.00 0.00 0.00 86 1012.4
20260906020036 73 23 5.0 12.0 0.00 0.00 0.00 86 1012.4
20260906015525 73 35 5.0 14.0 0.00 0.00 0.00 86 1012.4
20260906015023 73 36 5.0 14.0 0.00 0.00 0.00 86 1012.4
20260906014517 73 28 5.0 13.0 0.00 0.00 0.00 86 1012.4
20260906014009 73 64 6.0 14.0 0.00 0.00 0.00 86 1012.4
20260906013504 73 66 6.0 17.0 0.00 0.00 0.00 86 1012.4
20260906012958 73 45 7.0 17.0 0.00 0.00 0.00 86 1012.4
20260906012452 73 71 7.0 16.0 0.00 0.00 0.00 86 1012.4
20260906012203 73 5 7.0 16.0 0.00 0.00 0.00 85 1012.4
20260906011658 73 50 6.0 16.0 0.00 0.00 0.00 85 1012.3
20260906010934 73 80 4.0 12.0 0.00 0.00 0.00 84 1012.3
20260906010427 73 59 5.0 12.0 0.00 0.00 0.00 84 1012.3
20260906005923 73 355 5.0 13.0 0.00 0.00 0.00 83 1011.8
20260906005411 73 89 6.0 15.0 0.00 0.00 0.00 83 1011.8
20260906004909 73 30 6.0 15.0 0.00 0.00 0.00 83 1011.8
20260906004404 73 52 7.0 16.0 0.00 0.00 0.00 83 1011.7
20260906003858 73 84 7.0 16.0 0.00 0.00 0.00 82 1011.7
20260906003351 74 33 7.0 16.0 0.00 0.00 0.00 82 1011.7
20260906002845 74 57 7.0 16.0 0.00 0.00 0.00 82 1011.7
20260906002341 74 26 8.0 16.0 0.00 0.00 0.00 82 1011.7
20260906002049 74 64 7.0 14.0 0.00 0.00 0.00 82 1011.7
20260906001328 75 24 6.0 13.0 0.00 0.00 0.00 83 1011.8
20260906000816 75 342 5.0 13.0 0.00 0.00 0.00 82 1011.8
20260906000311 75 52 5.0 10.0 0.00 0.00 0.00 83 1011.8
20260906000031 75 37 6.0 13.0 0.00 0.00 0.00 83 1011.5
20260905235311 76 73 6.0 13.0 0.00 0.00 0.00 82 1011.5
20260905234811 76 46 5.0 11.0 0.00 0.00 0.00 82 1011.5
20260905234311 76 25 5.0 13.0 0.00 0.00 0.00 81 1011.4
20260905233811 76 100 5.0 13.0 0.00 0.00 0.00 80 1011.4
20260905233310 77 0 4.0 11.0 0.00 0.00 0.00 80 1011.4
20260905232810 77 82 5.0 13.0 0.00 0.00 0.00 80 1011.3
20260905232310 77 82 6.0 13.0 0.00 0.00 0.00 80 1011.3
20260905231806 77 5 7.0 14.0 0.00 0.00 0.00 79 1011.3
20260905231252 78 46 6.0 14.0 0.00 0.00 0.00 79 1011.0
20260905230742 78 49 6.0 13.0 0.00 0.00 0.00 78 1011.0
20260905230457 78 74 6.0 13.0 0.00 0.00 0.00 78 1011.0
20260905225952 79 46 6.0 13.0 0.00 0.00 0.00 78 1010.8
20260905225219 79 53 6.0 11.0 0.00 0.00 0.00 77 1010.8
20260905224716 79 94 6.0 11.0 0.00 0.00 0.00 77 1010.8
20260905224426 79 0 5.0 10.0 0.00 0.00 0.00 77 1010.9
20260905223924 79 37 4.0 12.0 0.00 0.00 0.00 78 1010.9
20260905223158 78 43 4.0 12.0 0.00 0.00 0.00 78 1010.9
20260905222652 78 63 5.0 10.0 0.00 0.00 0.00 78 1011.1
20260905222634 79 17 6.0 14.0 0.00 0.00 0.00 78 1011.1
20260905221636 79 48 6.0 14.0 0.00 0.00 0.00 77 1011.1
20260905221134 80 53 5.0 11.0 0.00 0.00 0.00 76 1011.0
20260905220629 80 128 4.0 11.0 0.00 0.00 0.00 76 1011.0
20260905220124 79 338 3.0 9.0 0.00 0.00 0.00 77 1011.0
20260905215617 79 47 4.0 11.0 0.00 0.00 0.00 77 1010.9
20260905215108 79 5 6.0 14.0 0.00 0.00 0.00 78 1010.9
20260905214830 79 35 6.0 14.0 0.00 0.00 0.00 77 1010.9
20260905214059 79 30 5.0 13.0 0.00 0.00 0.00 78 1010.9
20260905213552 79 41 6.0 12.0 0.00 0.00 0.00 78 1010.9
20260905213313 79 34 5.0 13.0 0.00 0.00 0.00 78 1010.9
20260905212540 79 49 6.0 13.0 0.00 0.00 0.00 77 1010.9
20260905212034 79 57 6.0 13.0 0.00 0.00 0.00 77 1010.9
20260905211524 80 348 6.0 12.0 0.00 0.00 0.00 77 1010.9
20260905211022 80 72 5.0 12.0 0.00 0.00 0.00 76 1010.9
20260905210516 81 23 4.0 11.0 0.00 0.00 0.00 76 1010.9
20260905210233 81 335 4.0 11.0 0.00 0.00 0.00 76 1010.9
20260905205505 81 26 6.0 13.0 0.00 0.00 0.00 75 1010.9
20260905204954 81 5 6.0 13.0 0.00 0.00 0.00 75 1010.9
20260905204453 82 71 6.0 12.0 0.00 0.00 0.00 75 1010.9
20260905203947 81 49 6.0 11.0 0.00 0.00 0.00 75 1010.9
20260905203704 81 19 6.0 12.0 0.00 0.00 0.00 75 1010.9
20260905202935 82 342 6.0 14.0 0.00 0.00 0.00 74 1010.9
20260905202907 82 72 5.0 14.0 0.00 0.00 0.00 74 1010.9
20260905201923 83 22 5.0 11.0 0.00 0.00 0.00 74 1010.9
20260905201632 83 355 5.0 11.0 0.00 0.00 0.00 74 1010.9
20260905200911 82 20 5.0 12.0 0.00 0.00 0.00 75 1010.9
20260905200405 82 5 6.0 12.0 0.00 0.00 0.00 74 1010.9
20260905195857 82 9 5.0 12.0 0.00 0.00 0.00 73 1010.8
20260905195352 83 14 6.0 14.0 0.00 0.00 0.00 74 1010.8
20260905194842 83 67 7.0 14.0 0.00 0.00 0.00 74 1010.8
20260905194338 83 41 7.0 14.0 0.00 0.00 0.00 73 1010.9
20260905193825 82 340 7.0 14.0 0.00 0.00 0.00 74 1010.9
20260905193315 82 27 5.0 14.0 0.00 0.00 0.00 74 1010.9
20260905192815 82 67 4.0 10.0 0.00 0.00 0.00 75 1011.0
20260905192315 82 47 5.0 13.0 0.00 0.00 0.00 74 1011.0
20260905191815 82 38 5.0 13.0 0.00 0.00 0.00 74 1011.0
20260905191546 82 88 5.0 13.0 0.00 0.00 0.00 75 1011.1
20260905191043 82 51 6.0 11.0 0.00 0.00 0.00 74 1011.1
20260905190536 83 78 5.0 10.0 0.00 0.00 0.00 74 1011.1
20260905185816 83 57 5.0 10.0 0.00 0.00 0.00 74 1011.1
20260905185317 83 333 5.0 12.0 0.00 0.00 0.00 73 1011.1
20260905184810 83 49 5.0 12.0 0.00 0.00 0.00 72 1011.1
20260905184525 83 49 5.0 9.0 0.00 0.00 0.00 73 1011.1
20260905183754 83 65 6.0 11.0 0.00 0.00 0.00 72 1011.1
20260905183243 84 11 5.0 13.0 0.00 0.00 0.00 72 1011.1
20260905182743 84 56 5.0 13.0 0.00 0.00 0.00 72 1011.0
20260905182235 84 17 5.0 12.0 0.00 0.00 0.00 73 1011.0
20260905181730 84 56 5.0 12.0 0.00 0.00 0.00 72 1011.0
20260905181225 84 5 5.0 12.0 0.00 0.00 0.00 72 1010.9
20260905180718 84 44 6.0 15.0 0.00 0.00 0.00 71 1010.9
20260905180212 85 46 6.0 15.0 0.00 0.00 0.00 71 1010.9
20260905175934 85 82 6.0 12.0 0.00 0.00 0.00 72 1010.9
20260905175425 85 44 5.0 13.0 0.00 0.00 0.00 71 1010.9
20260905174654 85 86 4.0 13.0 0.00 0.00 0.00 71 1010.9
20260905174411 85 48 5.0 13.0 0.00 0.00 0.00 72 1010.9
20260905173641 85 49 6.0 13.0 0.00 0.00 0.00 71 1010.9
20260905173131 85 346 6.0 15.0 0.00 0.00 0.00 72 1010.9
20260905172853 85 85 5.0 15.0 0.00 0.00 0.00 72 1011.0
20260905172124 85 63 6.0 16.0 0.00 0.00 0.00 71 1011.0
20260905171617 85 355 6.0 16.0 0.00 0.00 0.00 71 1011.0
20260905171328 85 73 5.0 12.0 0.00 0.00 0.00 73 1011.1
20260905171056 85 5 5.0 9.0 0.00 0.00 0.00 71 1011.1
20260905170059 85 16 5.0 10.0 0.00 0.00 0.00 72 1011.1
20260905165549 84 24 5.0 11.0 0.00 0.00 0.00 73 1011.2
20260905165047 84 64 5.0 16.0 0.00 0.00 0.00 73 1011.2
20260905164759 84 32 6.0 16.0 0.00 0.00 0.00 72 1011.2
20260905164304 84 74 5.0 12.0 0.00 0.00 0.00 73 1011.3
20260905163541 84 54 5.0 11.0 0.00 0.00 0.00 73 1011.3
20260905163044 83 42 5.0 11.0 0.00 0.00 0.00 73 1011.3
20260905162540 83 87 5.0 11.0 0.00 0.00 0.00 72 1011.3
20260905162306 83 31 5.0 10.0 0.00 0.00 0.00 73 1011.3
20260905161541 83 355 5.0 10.0 0.00 0.00 0.00 75 1011.3
20260905161041 83 36 6.0 13.0 0.00 0.00 0.00 75 1011.2
20260905160542 83 17 6.0 14.0 0.00 0.00 0.00 75 1011.2
20260905160304 83 58 5.0 14.0 0.00 0.00 0.00 76 1011.2
20260905155542 82 36 5.0 12.0 0.00 0.00 0.00 76 1011.1
20260905155039 82 57 4.0 11.0 0.00 0.00 0.00 77 1011.1
20260905154539 82 37 5.0 11.0 0.00 0.00 0.00 79 1011.1
20260905154041 82 66 4.0 11.0 0.00 0.00 0.00 79 1010.9
20260905153541 82 36 4.0 8.0 0.00 0.00 0.00 80 1010.9
20260905153043 82 55 5.0 12.0 0.00 0.00 0.00 81 1010.9
20260905152537 82 28 6.0 12.0 0.00 0.00 0.00 81 1010.9
20260905152027 81 46 6.0 11.0 0.00 0.00 0.00 81 1010.9
20260905151744 82 40 6.0 12.0 0.00 0.00 0.00 81 1010.9
20260905151028 82 95 6.0 12.0 0.00 0.00 0.00 81 1010.7
20260905150527 82 70 6.0 12.0 0.00 0.00 0.00 80 1010.7
20260905150027 82 64 6.0 10.0 0.00 0.00 0.00 80 1010.7
20260905145526 83 21 4.0 10.0 0.00 0.00 0.00 80 1010.8
20260905145029 83 0 3.0 5.0 0.00 0.00 0.00 81 1010.8
20260905144528 82 42 4.0 8.0 0.00 0.00 0.00 83 1010.8
20260905144026 81 33 4.0 8.0 0.00 0.00 0.00 83 1010.4
20260905143524 81 86 3.0 7.0 0.00 0.00 0.00 83 1010.4
20260905143018 81 12 3.0 6.0 0.00 0.00 0.00 83 1010.4
20260905142513 80 47 3.0 8.0 0.00 0.00 0.00 84 1010.2
20260905142008 80 67 4.0 9.0 0.00 0.00 0.00 84 1010.2
20260905141457 80 84 3.0 9.0 0.00 0.00 0.00 84 1010.2
20260905140954 80 44 3.0 8.0 0.00 0.00 0.00 84 1010.2
20260905140444 80 338 3.0 8.0 0.00 0.00 0.00 84 1010.2
20260905135942 80 34 3.0 6.0 0.00 0.00 0.00 85 1010.5
20260905135700 79 41 4.0 8.0 0.00 0.00 0.00 85 1010.5
20260905134926 79 39 4.0 8.0 0.00 0.00 0.00 85 1010.5
20260905134424 79 67 4.0 8.0 0.00 0.00 0.00 85 1010.8
20260905133918 79 52 3.0 8.0 0.00 0.00 0.00 86 1010.8
20260905133412 79 81 3.0 8.0 0.00 0.00 0.00 86 1010.8
20260905132908 79 50 4.0 8.0 0.00 0.00 0.00 87 1010.3
20260905132357 79 56 4.0 9.0 0.00 0.00 0.00 87 1010.3
20260905132128 78 83 4.0 9.0 0.00 0.00 0.00 87 1010.3
20260905131604 78 80 3.0 7.0 0.00 0.00 0.00 87 1010.2
20260905130842 78 15 3.0 7.0 0.00 0.00 0.00 87 1010.2
20260905130601 78 50 3.0 7.0 0.00 0.00 0.00 88 1010.2
20260905125832 78 49 3.0 7.0 0.00 0.00 0.00 88 1009.9
20260905125550 79 34 3.0 6.0 0.00 0.00 0.00 89 1009.9
20260905124815 79 49 2.0 6.0 0.00 0.00 0.00 90 1009.9
20260905124314 79 11 2.0 4.0 0.00 0.00 0.00 90 1009.7
20260905123807 78 46 1.0 4.0 0.00 0.00 0.00 90 1009.7
20260905123300 78 22 1.0 4.0 0.00 0.00 0.00 90 1009.7
20260905122755 78 355 1.0 4.0 0.00 0.00 0.00 90 1009.4
20260905122243 78 355 1.0 3.0 0.00 0.00 0.00 90 1009.4
20260905121742 78 320 1.0 3.0 0.00 0.00 0.00 90 1009.4
20260905121236 78 340 0.0 3.0 0.00 0.00 0.00 91 1009.3
20260905120731 78 319 0.0 2.0 0.00 0.00 0.00 91 1009.3
20260905120225 78 284 0.0 2.0 0.00 0.00 0.00 91 1009.3
20260905115935 78 33 0.0 2.0 0.00 0.00 0.00 90 1009.2
20260905115436 78 38 0.0 2.0 0.00 0.00 0.00 90 1009.2
20260905114703 78 38 0.0 2.0 0.00 0.00 0.00 90 1009.2
20260905114424 78 38 1.0 3.0 0.00 0.00 0.00 90 1009.2
20260905113656 78 38 1.0 3.0 0.00 0.00 0.00 90 1009.2
20260905113148 78 273 0.0 2.0 0.00 0.00 0.00 90 1009.2
20260905112642 78 240 0.0 1.0 0.00 0.00 0.00 90 1009.1
20260905112400 78 240 1.0 3.0 0.00 0.00 0.00 90 1009.1
20260905111636 78 240 2.0 4.0 0.00 0.00 0.00 90 1009.1
20260905111410 78 217 2.0 4.0 0.00 0.00 0.00 90 1009.0
20260905110857 78 249 1.0 3.0 0.00 0.00 0.00 90 1009.0
20260905110135 78 238 1.0 3.0 0.00 0.00 0.00 90 1009.0
20260905105904 78 238 1.0 2.0 0.00 0.00 0.00 90 1009.1
20260905105135 78 238 1.0 4.0 0.00 0.00 0.00 90 1009.1
20260905104858 78 238 1.0 4.0 0.00 0.00 0.00 90 1009.1
20260905104137 78 238 1.0 3.0 0.00 0.00 0.00 90 1009.2
20260905104110 78 238 1.0 3.0 0.00 0.00 0.00 90 1009.2
20260905103119 78 240 1.0 2.0 0.00 0.00 0.00 90 1009.2
20260905102609 78 240 0.0 1.0 0.00 0.00 0.00 90 1009.2
20260905102105 78 240 0.0 0.0 0.00 0.00 0.00 90 1009.2
20260905101558 78 240 0.0 0.0 0.00 0.00 0.00 90 1009.2
20260905101052 78 240 0.0 0.0 0.00 0.00 0.00 90 1009.2
20260905100542 78 240 0.0 0.0 0.00 0.00 0.00 90 1009.2
20260905100039 78 240 0.0 1.0 0.00 0.00 0.00 90 1009.2
20260905095534 78 240 0.0 1.0 0.00 0.00 0.00 89 1009.1
20260905095250 78 240 0.0 2.0 0.00 0.00 0.00 89 1009.1
20260905094522 78 240 1.0 2.0 0.00 0.00 0.00 89 1009.1
20260905094015 78 240 1.0 2.0 0.00 0.00 0.00 89 1009.1
20260905093729 78 240 1.0 2.0 0.00 0.00 0.00 89 1009.1
20260905093000 79 240 1.0 2.0 0.00 0.00 0.00 89 1009.1
20260905092457 79 240 2.0 3.0 0.00 0.00 0.00 89 1009.1
20260905091952 79 240 2.0 3.0 0.00 0.00 0.00 89 1009.1
20260905091710 79 233 1.0 2.0 0.00 0.00 0.00 89 1009.1
20260905090941 79 233 1.0 2.0 0.00 0.00 0.00 89 1009.1
20260905090429 79 233 0.0 2.0 0.00 0.00 0.00 89 1009.1
20260905090156 79 233 1.0 2.0 0.00 0.00 0.00 89 1009.1
20260905085423 79 233 1.0 3.0 0.00 0.00 0.00 89 1009.1
20260905084915 79 233 1.0 3.0 0.00 0.00 0.00 89 1009.1
20260905084636 79 230 0.0 1.0 0.00 0.00 0.00 89 1009.1
20260905083859 79 248 0.0 0.0 0.00 0.00 0.00 89 1009.1
20260905083357 79 248 0.0 0.0 0.00 0.00 0.00 89 1009.1
20260905083111 79 319 0.0 0.0 0.00 0.00 0.00 89 1009.2
20260905082345 79 319 0.0 0.0 0.00 0.00 0.00 89 1009.2
20260905081840 79 321 0.0 0.0 0.00 0.00 0.00 89 1009.2
20260905081333 79 275 0.0 0.0 0.00 0.00 0.00 89 1009.2
20260905080828 79 275 0.0 0.0 0.00 0.00 0.00 89 1009.2
20260905080542 79 257 0.0 0.0 0.00 0.00 0.00 89 1009.2
20260905075815 79 304 0.0 0.0 0.00 0.00 0.00 89 1009.1
20260905075311 79 233 0.0 0.0 0.00 0.00 0.00 89 1009.1
20260905074803 79 233 0.0 0.0 0.00 0.00 0.00 88 1009.1
20260905074258 79 233 0.0 0.0 0.00 0.00 0.00 88 1009.0
20260905073748 79 233 0.0 0.0 0.00 0.00 0.00 88 1009.0
20260905073245 79 233 0.0 0.0 0.00 0.00 0.00 88 1009.0
20260905072740 79 233 0.0 0.0 0.00 0.00 0.00 88 1009.0
20260905072233 79 233 0.0 0.0 0.00 0.00 0.00 88 1009.0
20260905071728 79 233 0.0 0.0 0.00 0.00 0.00 88 1009.0
20260905071220 80 233 0.0 0.0 0.00 0.00 0.00 88 1009.2
20260905070935 80 233 0.0 0.0 0.00 0.00 0.00 88 1009.2
20260905070208 80 233 0.0 0.0 0.00 0.00 0.00 87 1009.2
20260905065700 80 233 0.0 0.0 0.00 0.00 0.00 87 1009.2
20260905065146 80 233 0.0 2.0 0.00 0.00 0.00 87 1009.2
20260905064642 80 233 0.0 2.0 0.00 0.00 0.00 87 1009.2
20260905064140 80 233 1.0 3.0 0.00 0.00 0.00 87 1009.2
20260905063644 80 233 2.0 4.0 0.00 0.00 0.00 87 1009.2
20260905063141 80 229 2.0 4.0 0.00 0.00 0.00 87 1009.2
20260905062642 80 223 2.0 4.0 0.00 0.00 0.00 87 1009.2
20260905062138 80 219 1.0 3.0 0.00 0.00 0.00 87 1009.2
20260905061639 80 219 1.0 3.0 0.00 0.00 0.00 87 1009.2
20260905061138 80 219 2.0 3.0 0.00 0.00 0.00 87 1009.3
20260905060642 80 234 2.0 3.0 0.00 0.00 0.00 87 1009.3
20260905060140 80 231 2.0 3.0 0.00 0.00 0.00 87 1009.3
20260905055634 80 229 2.0 4.0 0.00 0.00 0.00 87 1009.6
20260905055607 80 218 2.0 4.0 0.00 0.00 0.00 87 1009.6
20260905054622 80 241 1.0 4.0 0.00 0.00 0.00 86 1009.6
20260905054115 80 221 1.0 3.0 0.00 0.00 0.00 86 1009.7
20260905053610 80 221 1.0 4.0 0.00 0.00 0.00 86 1009.7
20260905053103 80 217 1.0 4.0 0.00 0.00 0.00 85 1009.7
20260905052557 80 221 0.0 3.0 0.00 0.00 0.00 85 1009.6
20260905052309 80 221 2.0 4.0 0.00 0.00 0.00 85 1009.6
20260905052033 81 228 2.0 4.0 0.00 0.00 0.00 85 1009.6
20260905051040 81 215 3.0 5.0 0.00 0.00 0.00 85 1009.2
20260905050534 81 236 3.0 6.0 0.00 0.00 0.00 84 1009.2
20260905050024 81 226 2.0 6.0 0.00 0.00 0.00 84 1009.2
20260905045523 81 211 1.0 5.0 0.00 0.00 0.00 84 1009.5
20260905045017 81 232 1.0 3.0 0.00 0.00 0.00 83 1009.5
20260905044513 82 232 1.0 3.0 0.00 0.00 0.00 83 1009.5
20260905044006 82 231 1.0 3.0 0.00 0.00 0.00 82 1009.7
20260905043456 82 239 1.0 2.0 0.00 0.00 0.00 82 1009.7
20260905043212 83 240 2.0 5.0 0.00 0.00 0.00 81 1009.6
20260905042448 83 240 2.0 5.0 0.00 0.00 0.00 81 1009.6
20260905041943 83 229 2.0 4.0 0.00 0.00 0.00 81 1009.6
20260905041436 83 226 2.0 4.0 0.00 0.00 0.00 80 1009.7
20260905040925 83 224 2.0 4.0 0.00 0.00 0.00 80 1009.7
20260905040423 83 231 2.0 4.0 0.00 0.00 0.00 80 1009.7